Location: Alma
(38.7220°N, 88.9090°W)
Time: 04:20:21
(UTC-06:00)

Vanguard 2 Rocket - Pass Details

Date: 21 November 2019
Orbit: 554 x 3326 km, 32.9° (Epoch: 08 December)

Event Time Altitude Azimuth Distance (km) Brightness Sun altitude
Rises 07:36:15 0° 256° (WSW) 4,372 10.0 8.0°
Reaches altitude 10° 07:41:59 10° 225° (SW) 4,046 10.1 8.9°
Maximum altitude 07:45:10 12° 208° (SSW) 4,255 10.5 9.4°
Drops below altitude 10° 07:48:47 10° 192° (SSW) 4,749 10.9 10.0°
Sets 07:57:50 0° 166° (SSE) 6,521 12.2 11.4°
